Shenandoah, IA

4:00 AM CDT on May 28, 2017 (GMT -0500)
Shenandoah Municipal

Weather History for KSDA - October, 2011

Change the Weather History Date:

Sunday, October 30, 2011

  Actual Average Record
Temperature  
Mean Temperature 46 °F -  
Max Temperature 60 °F 58 °F 84 °F (1950)
Min Temperature 32 °F 39 °F 21 °F (1988)
Degree Days  
Heating Degree Days 18    
Moisture  
Dew Point 23 °F    
Average Humidity 37    
Maximum Humidity 65    
Minimum Humidity 14    
Precipitation  
Precipitation 0.00 in - - ()
Sea Level Pressure  
Sea Level Pressure 29.98 in    
Wind  
Wind Speed 12 mph (WNW)    
Max Wind Speed 21 mph    
Max Gust Speed 30 mph    
Visibility 10 miles    
Events      
Averages and records for this station are not official NWS values.
T = Trace of Precipitation, MM = Missing Value Source: NWS Daily Summary

Daily Weather History Graph

Daily Weather History Graph

Search for Another Location

Airport or City:

Trip Planner

Search our weather history database for the weather conditions in past years. The results will help you decide how hot, cold, wet, or windy it might be!

Date:

Astronomy

Oct. 30, 2011 Rise Set
Actual Time 7:49 AM CDT 6:20 PM CDT
Civil Twilight 7:21 AM CDT 6:48 PM CDT
Nautical Twilight 6:48 AM CDT 7:21 PM CDT
Astronomical Twilight 6:16 AM CDT 7:52 PM CDT
Moon 12:10 PM CDT (10/30) 9:49 PM CDT (10/30)
Length of Visible Light 11h 27m
Length of Day
10h 31m
Waxing Crescent, 20% of the Moon is Illuminated
Oct 30
Waxing Crescent
Nov 2
First Quarter
Nov 10
Full
Nov 18
Last Quarter
Nov 25
New

Hourly Weather History & Observations

Time (CDT) Temp. Windchill Dew Point Humidity Pressure Visibility Wind Dir Wind Speed Gust Speed Precip Events Conditions
12:15 AM 59.0 °F - 21.2 °F 23% 29.86 in 10.0 mi SSW 18.4 mph 21.9 mph N/A   Scattered Clouds
12:35 AM 57.2 °F - 23.0 °F 27% 29.87 in 10.0 mi SW 13.8 mph 18.4 mph N/A   Scattered Clouds
12:55 AM 57.2 °F - 24.8 °F 29% 29.87 in 10.0 mi SW 11.5 mph - N/A   Scattered Clouds
1:15 AM 57.2 °F - 24.8 °F 29% 29.87 in 10.0 mi SW 12.7 mph 18.4 mph N/A   Scattered Clouds
1:35 AM 57.2 °F - 24.8 °F 29% 29.87 in 10.0 mi SW 11.5 mph - N/A   Scattered Clouds
1:55 AM 55.4 °F - 26.6 °F 33% 29.88 in 10.0 mi SW 11.5 mph - N/A   Scattered Clouds
2:35 AM 55.4 °F - 26.6 °F 33% 29.87 in 10.0 mi WSW 12.7 mph - N/A   Scattered Clouds
2:55 AM 55.4 °F - 28.4 °F 36% 29.86 in 10.0 mi SW 12.7 mph - N/A   Scattered Clouds
3:15 AM 53.6 °F - 28.4 °F 38% 29.88 in 10.0 mi West 13.8 mph 19.6 mph N/A   Scattered Clouds
3:35 AM 51.8 °F - 30.2 °F 44% 29.88 in 10.0 mi WSW 10.4 mph - N/A   Clear
3:55 AM 50.0 °F - 30.2 °F 47% 29.89 in 10.0 mi West 6.9 mph - N/A   Scattered Clouds
4:15 AM 46.4 °F 42.9 °F 30.2 °F 53% 29.90 in 10.0 mi West 6.9 mph - N/A   Clear
4:35 AM 46.4 °F 44.3 °F 30.2 °F 53% 29.90 in 10.0 mi West 4.6 mph - N/A   Scattered Clouds
4:55 AM 44.6 °F - 30.2 °F 57% 29.90 in 10.0 mi Calm Calm - N/A   Scattered Clouds
5:15 AM 42.8 °F 39.3 °F 30.2 °F 61% 29.91 in 10.0 mi WSW 5.8 mph - N/A   Scattered Clouds
5:35 AM 41.0 °F 36.4 °F 30.2 °F 65% 29.93 in 10.0 mi WSW 6.9 mph - N/A   Scattered Clouds
5:55 AM 46.4 °F 41.5 °F 30.2 °F 53% 29.94 in 10.0 mi NW 10.4 mph - N/A   Scattered Clouds
6:15 AM 50.0 °F - 32.0 °F 50% 29.92 in 10.0 mi NNW 11.5 mph - N/A   Scattered Clouds
6:35 AM 50.0 °F - 33.8 °F 54% 29.94 in 10.0 mi NNW 8.1 mph 17.3 mph N/A   Scattered Clouds
7:15 AM 50.0 °F - 33.8 °F 54% 29.96 in 10.0 mi NW 10.4 mph 18.4 mph N/A   Mostly Cloudy
7:35 AM 50.0 °F - 35.6 °F 58% 29.96 in 10.0 mi NNW 8.1 mph - N/A   Mostly Cloudy
8:15 AM 48.2 °F - 35.6 °F 62% 30.00 in 10.0 mi NW 9.2 mph 16.1 mph N/A   Mostly Cloudy
8:35 AM 48.2 °F - 33.8 °F 58% 30.01 in 10.0 mi NW 8.1 mph - N/A   Scattered Clouds
8:55 AM 46.4 °F 42.4 °F 33.8 °F 62% 30.02 in 10.0 mi NW 8.1 mph - N/A   Clear
9:15 AM 48.2 °F - 33.8 °F 58% 30.03 in 10.0 mi NNW 8.1 mph - N/A   Clear
9:35 AM 48.2 °F - 32.0 °F 54% 30.03 in 10.0 mi NNW 13.8 mph 19.6 mph N/A   Clear
9:55 AM 51.8 °F - 30.2 °F 44% 30.03 in 10.0 mi NNW 20.7 mph 25.3 mph N/A   Clear
10:15 AM 51.8 °F - 30.2 °F 44% 30.04 in 10.0 mi NNW 16.1 mph 23.0 mph N/A   Clear
10:35 AM 51.8 °F - 32.0 °F 47% 30.04 in 10.0 mi NW 10.4 mph 17.3 mph N/A   Clear
10:55 AM 51.8 °F - 32.0 °F 47% 30.04 in 10.0 mi WNW 13.8 mph 19.6 mph N/A   Clear
11:15 AM 53.6 °F - 30.2 °F 41% 30.05 in 10.0 mi NNW 12.7 mph 21.9 mph N/A   Clear
11:35 AM 53.6 °F - 30.2 °F 41% 30.05 in 10.0 mi WNW 12.7 mph - N/A   Clear
11:55 AM 55.4 °F - 30.2 °F 38% 30.05 in 10.0 mi WNW 10.4 mph 16.1 mph N/A   Clear
12:15 PM 55.4 °F - 28.4 °F 36% 30.05 in 10.0 mi NW 13.8 mph 18.4 mph N/A   Clear
12:35 PM 57.2 °F - 24.8 °F 29% 30.04 in 10.0 mi WNW 12.7 mph 19.6 mph N/A   Clear
12:55 PM 57.2 °F - 21.2 °F 25% 30.04 in 10.0 mi NW 16.1 mph 23.0 mph N/A   Clear
1:35 PM 57.2 °F - 17.6 °F 21% 30.03 in 10.0 mi WNW 19.6 mph 24.2 mph N/A   Clear
1:55 PM 59.0 °F - 17.6 °F 20% 30.02 in 10.0 mi WNW 18.4 mph 26.5 mph N/A   Clear
2:15 PM 59.0 °F - 15.8 °F 19% 30.02 in 10.0 mi NNW 13.8 mph 25.3 mph N/A   Clear
2:35 PM 60.8 °F - 15.8 °F 17% 30.02 in 10.0 mi NNW 20.7 mph 27.6 mph N/A   Clear
2:55 PM 60.8 °F - 10.4 °F 14% 30.02 in 10.0 mi NNW 20.7 mph 29.9 mph N/A   Clear
3:15 PM 60.8 °F - 12.2 °F 15% 30.02 in 10.0 mi NW 19.6 mph 25.3 mph N/A   Clear
3:35 PM 60.8 °F - 12.2 °F 15% 30.02 in 10.0 mi WNW 16.1 mph 23.0 mph N/A   Clear
3:55 PM 60.8 °F - 10.4 °F 14% 30.02 in 10.0 mi NNW 13.8 mph 24.2 mph N/A   Clear
4:15 PM 60.8 °F - 10.4 °F 14% 30.01 in 10.0 mi NW 15.0 mph 24.2 mph N/A   Scattered Clouds
4:35 PM 60.8 °F - 10.4 °F 14% 30.01 in 10.0 mi WNW 12.7 mph 19.6 mph N/A   Clear
4:55 PM 59.0 °F - 10.4 °F 15% 30.01 in 10.0 mi WNW 15.0 mph 24.2 mph N/A   Clear
5:15 PM 59.0 °F - 8.6 °F 14% 30.01 in 10.0 mi WNW 12.7 mph 25.3 mph N/A   Clear
5:35 PM 59.0 °F - 8.6 °F 14% 30.01 in 10.0 mi WNW 10.4 mph 20.7 mph N/A   Clear
6:15 PM 53.6 °F - 12.2 °F 19% 30.01 in 10.0 mi WNW 4.6 mph - N/A   Scattered Clouds
6:35 PM 53.6 °F - 12.2 °F 19% 30.02 in 10.0 mi WNW 4.6 mph - N/A   Scattered Clouds
6:55 PM 51.8 °F - 12.2 °F 21% 30.03 in 10.0 mi WNW 4.6 mph - N/A   Scattered Clouds
7:15 PM 46.4 °F - 15.8 °F 29% 30.04 in 10.0 mi Calm Calm - N/A   Scattered Clouds
7:35 PM 46.4 °F - 14.0 °F 27% 30.04 in 10.0 mi Calm Calm - N/A   Scattered Clouds
7:55 PM 44.6 °F - 15.8 °F 31% 30.05 in 10.0 mi Calm Calm - N/A   Scattered Clouds
8:15 PM 42.8 °F - 17.6 °F 36% 30.05 in 10.0 mi Calm Calm - N/A   Scattered Clouds
8:35 PM 41.0 °F - 17.6 °F 39% 30.05 in 10.0 mi Calm Calm - N/A   Scattered Clouds
9:15 PM 37.4 °F 34.9 °F 19.4 °F 48% 30.06 in 10.0 mi SW 3.5 mph - N/A   Clear
9:35 PM 33.8 °F 30.8 °F 19.4 °F 56% 30.06 in 10.0 mi WSW 3.5 mph - N/A   Scattered Clouds
9:55 PM 32.0 °F 27.5 °F 19.4 °F 60% 30.06 in 10.0 mi WSW 4.6 mph - N/A   Clear
10:15 PM 33.8 °F - 19.4 °F 56% 30.07 in 10.0 mi Calm Calm - N/A   Clear
10:35 PM 33.8 °F 29.6 °F 19.4 °F 56% 30.07 in 10.0 mi SW 4.6 mph - N/A   Scattered Clouds
10:55 PM 33.8 °F 30.8 °F 19.4 °F 56% 30.08 in 10.0 mi West 3.5 mph - N/A   Scattered Clouds
11:15 PM 32.0 °F - 19.4 °F 60% 30.08 in 10.0 mi Calm Calm - N/A   Scattered Clouds
11:35 PM 33.8 °F - 19.4 °F 56% 30.08 in 10.0 mi Calm Calm - N/A   Scattered Clouds
11:55 PM 33.8 °F - 19.4 °F 56% 30.09 in 10.0 mi Calm Calm - N/A   Scattered Clouds